Location: Recife
(8.0585°S, 34.8848°W)
Time: 12:51:13
(UTC-03:00)

Vanguard 2 Rocket - Pass Details

Date: 17 April 2026
Orbit: 553 x 3286 km, 32.9° (Epoch: 7 May)

Event Time Altitude Azimuth Distance (km) Brightness Sun altitude
Rises 02:50:21 0° 321° (NW) 2,818 - -37.9°
Reaches altitude 10° 02:52:24 10° 329° (NNW) 2,038 - -37.4°
Maximum altitude 02:56:43 41° 41° (NE) 1,158 - -36.3°
Exits shadow 02:57:43 38° 67° (ENE) 1,290 7.9 -36.1°
Drops below altitude 10° 03:03:18 10° 109° (ESE) 3,112 10.3 -34.7°
Sets 03:07:09 0° 115° (ESE) 4,533 11.2 -33.8°
